[[{"header":{"parameterUnit":"m.s-1","parameterCategory":1,"la1":30.2991,"la2":30.254,"lo1":-89.0895,"lo2":-89.0444,"dy":0.0017,"dx":0.0017,"nx":28,"ny":28,"refTime":"2023-09-24T03:00:00:Z","depth":0,"parameterNumber":2,"parameterNumberName":"U-component_of_WINDS"},"data":[0,0,0,0,0,0,0,0,0,0,0,0,0,0,0,0,0,0,0,0,0,0,0,0,0,0,0,0,0,0,0,0,0,0,0,0,0,0,0,0,0,0,0,0,0,0,0,0,0,0,0,0,0,0,0,0,0,0,0.2319,0.232,0,0.2338,0.2338,0.2338,0.2334,0.2334,0.2334,0.2333,0.2356,0.2357,0.2358,0,0,0,0,0,0,0,0,0,0,0,0,0,0.2283,0.2284,0.2319,0.232,0.232,0.2338,0.2338,0.2338,0.2335,0.2334,0.2334,0.2333,0.2356,0.2357,0.2358,0,0,0,0,0,0,0,0,0,0,0,0,0,0.23,0.2284,0.2319,0.232,0.232,0.2338,0.2338,0.2339,0.2335,0.2334,0.2334,0.2333,0.2356,0.2357,0.2358,0.2378,0,0,0.2363,0.2363,0,0,0,0,0,0,0,0,0.2299,0.2301,0.232,0.232,0.232,0.2333,0.2334,0.2352,0.2335,0.2329,0.2333,0.2333,0.2349,0.2351,0.2356,0.2379,0.238,0.2363,0.2364,0.2364,0.2365,0,0,0,0,0,0,0,0.2298,0.2301,0.2327,0.232,0.232,0.232,0.2322,0.2337,0.2342,0.233,0.2329,0.2332,0.2349,0.2355,0.2357,0.238,0.2363,0.2364,0.2365,0.2365,0.2419,0.2419,0,0,0,0,0,0,0.2296,0.23,0.2326,0.2327,0.2308,0.2321,0.2323,0.233,0.2342,0.2343,0.2332,0.2331,0.2352,0.2355,0.2357,0.238,0.2364,0.2366,0.2366,0.2418,0.2419,0.2419,0,0,0,0,0,0,0.2295,0.2298,0.2325,0.2313,0.2317,0.2322,0.233,0.233,0.2335,0.2344,0.2345,0.2336,0.2352,0.2355,0.2372,0.2381,0.2366,0.2367,0.2417,0.2418,0.2419,0.2426,0,0,0,0,0,0,0.2294,0.2298,0.2305,0.2314,0.2317,0.2339,0.233,0.2331,0.2337,0.2337,0.2348,0.2349,0.2352,0.237,0.2374,0.2382,0.2369,0.2417,0.2418,0.2419,0.2425,0.2427,0.2428,0,0,0,0,0,0.2293,0.2307,0.2305,0.2309,0.2326,0.234,0.2342,0.2344,0.2338,0.2345,0.235,0.2349,0.2379,0.2372,0.2376,0.2385,0.2416,0.2418,0.2419,0.2424,0.2426,0.2428,0,0,0,0,0,0,0.2301,0.2308,0.2306,0.2324,0.2331,0.2339,0.2348,0.2346,0.2356,0.2356,0.2358,0.2361,0.2378,0.2383,0.2375,0.2404,0.2397,0.2399,0.24,0.2402,0.2404,0.2402,0.237,0,0,0,0,0,0.2305,0.2314,0.2321,0.2335,0.2339,0.2343,0.2349,0.2349,0.2358,0.2361,0.2367,0.2376,0.2388,0.2395,0.2406,0.2426,0.2428,0.2434,0.2436,0.2437,0.2439,0.2449,0.2451,0.2424,0.2424,0.2424,0,0,0.2313,0.2318,0.2324,0.2337,0.2343,0.2353,0.2346,0.2357,0.2365,0.2363,0.2379,0.2384,0.2394,0.2412,0.242,0.2417,0.2447,0.2439,0.244,0.2441,0.245,0.2453,0.2455,0.2425,0.2424,0.2424,0,0,0.2332,0.2337,0.2349,0.2355,0.2363,0.2365,0.2368,0.2376,0.2379,0.2394,0.2393,0.2403,0.2423,0.2429,0.2436,0.2456,0.2455,0.246,0.2469,0.2479,0.2481,0.2483,0.249,0.2492,0.2462,0.2462,0.2462,0,0.2342,0.2356,0.2356,0.2368,0.2373,0.237,0.2383,0.2389,0.24,0.2405,0.2401,0.2424,0.2431,0.245,0.2455,0.246,0.2464,0.2459,0.2481,0.2483,0.2484,0.2491,0.2494,0.2462,0.2462,0.2462,0.2462,0,0.2367,0.2377,0.2386,0.2396,0.2403,0.2415,0.2417,0.2424,0.2424,0.2427,0.2442,0.245,0.2462,0.2466,0.2467,0.2485,0.2483,0.248,0.2473,0.2488,0.2494,0.2496,0.2463,0.2463,0.2463,0.2463,0,0,0.2393,0.2401,0.2405,0.2409,0.2417,0.2425,0.2437,0.2447,0.2453,0.2461,0.2471,0.2487,0.2483,0.249,0.2492,0.25,0.2515,0.2496,0.2496,0.2499,0.2535,0.2537,0.254,0.2514,0.2515,0.2515,0.2534,0,0.2413,0.2432,0.2432,0.2451,0.246,0.2457,0.2467,0.2473,0.2476,0.2485,0.2489,0.25,0.2495,0.2499,0.2507,0.2512,0.2522,0.251,0.2524,0.2524,0.2521,0.2543,0.2546,0.2563,0.2536,0.2537,0.2537,0,0.2439,0.2446,0.2465,0.247,0.2474,0.2484,0.2492,0.2501,0.2508,0.2509,0.2516,0.2516,0.2528,0.2521,0.2538,0.253,0.2535,0.2538,0.2539,0.254,0.2532,0.2545,0.2569,0.2571,0.2541,0.2541,0.2541,0,0.2456,0.247,0.2483,0.2486,0.2493,0.25,0.2503,0.251,0.2515,0.2523,0.2527,0.2537,0.2543,0.2551,0.2553,0.2547,0.257,0.2563,0.2572,0.2572,0.2577,0.2576,0.2602,0.2581,0.2581,0.2581,0.2581,0,0.2478,0.2489,0.249,0.2498,0.251,0.251,0.2523,0.2526,0.2532,0.2541,0.2539,0.2548,0.255,0.2559,0.2562,0.2575,0.2578,0.258,0.258,0.258,0.2579,0.2583,0.2582,0.2581,0.2581,0.2581,0.2581,0,0.2498,0.2499,0.2513,0.2518,0.2519,0.2528,0.2533,0.2541,0.2543,0.2554,0.2557,0.256,0.2571,0.2574,0.2587,0.2588,0.2604,0.2603,0.2601,0.2601,0.2609,0.2608,0.2638,0.2642,0.2619,0.2619,0.2619,0,0.2512,0.2521,0.2526,0.2531,0.2534,0.2543,0.2548,0.2548,0.2554,0.2562,0.2569,0.2579,0.2587,0.2604,0.2608,0.2618,0.2617,0.2627,0.2619,0.2618,0.2617,0.2616,0.2617,0.2629,0.2629,0.2629,0.2629,0,0.2537,0.2536,0.2544,0.2551,0.2557,0.2563,0.2568,0.2573,0.2574,0.2581,0.259,0.2596,0.2609,0.2618,0.2628,0.2632,0.2631,0.2631,0.2634,0.2634,0.2631,0.2632,0.2605,0.2631,0.2631,0.2631,0.2631,0.263,0.2554,0.2561,0.2565,0.2573,0.2577,0.2582,0.2589,0.2592,0.2599,0.2608,0.2608,0.2619,0.2625,0.2638,0.2642,0.2651,0.2648,0.2652,0.2653,0.2654,0.2654,0.263,0.2653,0.2653,0.2653,0.2653,0.2653,0,0.2578,0.258,0.2587,0.2595,0.2601,0.2597,0.2603,0.2609,0.2618,0.2623,0.263,0.2641,0.265,0.2655,0.2664,0.267,0.267,0.2672,0.2672,0.2673,0.2656,0.2653,0.2673,0.2673,0.2673,0.2673,0.2673,0.2673,0.2591,0.2602,0.2602,0.2616,0.2618,0.2627,0.2631,0.2635,0.264,0.2651,0.2658,0.2661,0.2666,0.2675,0.2683,0.2684,0.2688,0.2691,0.2692,0.2676,0.2674,0.2672,0.2669,0.2692,0.2692,0.2707,0.2707,0.2707]},{"header":{"parameterUnit":"m.s-1","parameterCategory":1,"la1":30.2991,"la2":30.254,"lo1":-89.0895,"lo2":-89.0444,"dy":0.0017,"dx":0.0017,"nx":28,"ny":28,"refTime":"2023-09-24T03:00:00:Z","depth":0,"parameterNumber":3,"parameterNumberName":"V-component_of_WINDS"},"data":[0,0,0,0,0,0,0,0,0,0,0,0,0,0,0,0,0,0,0,0,0,0,0,0,0,0,0,0,0,0,0,0,0,0,0,0,0,0,0,0,0,0,0,0,0,0,0,0,0,0,0,0,0,0,0,0,0,0,2.6311,2.6311,0,2.6316,2.6316,2.6316,2.6334,2.6334,2.6335,2.6335,2.6338,2.6337,2.6337,0,0,0,0,0,0,0,0,0,0,0,0,0,2.6313,2.6313,2.6311,2.6311,2.6311,2.6316,2.6316,2.6316,2.6334,2.6335,2.6335,2.6336,2.6338,2.6337,2.6337,0,0,0,0,0,0,0,0,0,0,0,0,0,2.6314,2.6313,2.6311,2.6321,2.6322,2.6316,2.6316,2.6316,2.6334,2.6335,2.6335,2.6336,2.6338,2.6337,2.6337,2.6321,0,0,2.6335,2.6335,0,0,0,0,0,0,0,0,2.6314,2.6314,2.6319,2.632,2.6321,2.6325,2.6317,2.6318,2.6334,2.6329,2.6335,2.6336,2.6333,2.6333,2.6332,2.6321,2.6321,2.6335,2.6335,2.6335,2.6335,0,0,0,0,0,0,0,2.6314,2.6314,2.6313,2.6319,2.632,2.6323,2.6324,2.6317,2.6327,2.633,2.6331,2.6331,2.6333,2.6333,2.6332,2.6321,2.6335,2.6335,2.6335,2.6334,2.6294,2.6294,0,0,0,0,0,0,2.6313,2.6314,2.6312,2.6313,2.6319,2.6323,2.6324,2.6323,2.6327,2.6329,2.6331,2.6332,2.6333,2.6333,2.6333,2.6312,2.6335,2.6334,2.6334,2.6295,2.6294,2.6293,0,0,0,0,0,0,2.6313,2.6313,2.6312,2.6314,2.6314,2.6322,2.6321,2.6323,2.6322,2.6328,2.633,2.6329,2.6334,2.6333,2.6323,2.6312,2.6334,2.6334,2.6296,2.6295,2.6294,2.6272,0,0,0,0,0,0,2.6313,2.6313,2.6308,2.6313,2.6314,2.6304,2.632,2.6322,2.6321,2.6323,2.6327,2.6328,2.6334,2.6324,2.6323,2.6312,2.6333,2.6297,2.6295,2.6294,2.6274,2.627,2.6268,0,0,0,0,0,2.6313,2.6302,2.6308,2.6307,2.6308,2.6304,2.6304,2.6312,2.6321,2.6315,2.6318,2.6328,2.6314,2.6323,2.6322,2.6311,2.6298,2.6296,2.6294,2.6275,2.6271,2.6268,0,0,0,0,0,0,2.6294,2.6303,2.6309,2.63,2.6301,2.6307,2.63,2.6308,2.6306,2.6308,2.6317,2.6318,2.6306,2.6307,2.6317,2.6294,2.6307,2.6305,2.6293,2.6289,2.6286,2.6285,2.6333,0,0,0,0,0,2.6289,2.6286,2.6293,2.6284,2.6284,2.6292,2.629,2.6297,2.6298,2.6298,2.6301,2.6301,2.6296,2.6293,2.629,2.6275,2.6274,2.6266,2.6263,2.626,2.6258,2.6247,2.6243,2.6288,2.6288,2.6288,0,0,2.6278,2.6282,2.628,2.628,2.6282,2.6276,2.6292,2.6287,2.6282,2.6297,2.6287,2.6289,2.629,2.6276,2.6271,2.6277,2.6245,2.6258,2.6256,2.6255,2.6245,2.624,2.6236,2.6286,2.6287,2.6287,0,0,2.6256,2.626,2.6251,2.6252,2.6254,2.6259,2.6257,2.6261,2.6263,2.6254,2.6264,2.6258,2.6251,2.625,2.6248,2.6222,2.6229,2.6221,2.6204,2.6193,2.6189,2.6186,2.6174,2.617,2.6219,2.6219,2.6219,0,2.6242,2.6235,2.6246,2.6239,2.6237,2.6251,2.6241,2.6241,2.6241,2.6239,2.6247,2.6236,2.6238,2.6223,2.6216,2.6216,2.6211,2.622,2.6189,2.6186,2.6183,2.6172,2.6168,2.6218,2.6218,2.6218,2.6218,0,2.6217,2.6212,2.6205,2.6205,2.6203,2.6194,2.6201,2.6198,2.6204,2.6207,2.6195,2.6197,2.6193,2.619,2.6196,2.6175,2.6179,2.6188,2.6201,2.6178,2.6167,2.6163,2.6216,2.6216,2.6217,2.6217,0,0,2.6183,2.6188,2.6184,2.6183,2.6186,2.6182,2.6173,2.6169,2.6164,2.6164,2.6155,2.6147,2.6155,2.6153,2.6158,2.6149,2.6125,2.6159,2.6159,2.615,2.6098,2.609,2.6085,2.613,2.6129,2.6129,2.6097,0,2.616,2.6146,2.6153,2.6138,2.6132,2.6143,2.6135,2.6134,2.6137,2.6131,2.6133,2.6126,2.6138,2.6137,2.6128,2.613,2.6114,2.6132,2.6119,2.6119,2.6117,2.608,2.6072,2.6042,2.6094,2.6093,2.6092,0,2.6131,2.6128,2.6112,2.6113,2.6111,2.6104,2.6099,2.6094,2.6092,2.6094,2.6091,2.6098,2.6087,2.6101,2.6084,2.6096,2.6091,2.6091,2.609,2.6088,2.6103,2.6074,2.6033,2.6027,2.6086,2.6087,2.6087,0,2.6105,2.6098,2.6086,2.6085,2.6087,2.6081,2.6081,2.608,2.6076,2.6072,2.6069,2.6063,2.606,2.6054,2.6058,2.6069,2.604,2.6055,2.6039,2.6038,2.6031,2.6031,2.5986,2.6031,2.6031,2.6032,2.6032,0,2.6077,2.6066,2.6074,2.6067,2.6054,2.6062,2.6048,2.6049,2.6048,2.6039,2.6049,2.6041,2.6048,2.6039,2.6042,2.6026,2.6025,2.6024,2.6025,2.6022,2.6022,2.6018,2.6019,2.603,2.6031,2.6031,2.6031,0,2.6045,2.6051,2.6039,2.6041,2.6041,2.6031,2.6031,2.6024,2.6026,2.6015,2.6013,2.6016,2.6006,2.601,2.6,2.6001,2.598,2.5984,2.598,2.5981,2.5963,2.5964,2.5912,2.5905,2.5957,2.5957,2.5956,0,2.6027,2.6018,2.6019,2.6014,2.6013,2.6006,2.6002,2.6008,2.6003,2.5999,2.5991,2.5982,2.5975,2.5958,2.5958,2.595,2.5952,2.5935,2.5951,2.5947,2.5949,2.5948,2.5946,2.5931,2.593,2.593,2.593,0,2.5991,2.5994,2.5988,2.5982,2.5977,2.5973,2.5969,2.5964,2.5971,2.5964,2.5954,2.5949,2.5937,2.5927,2.5918,2.5916,2.5922,2.5925,2.592,2.5916,2.5913,2.5911,2.5969,2.5925,2.5926,2.5926,2.5926,2.5927,2.5964,2.5956,2.5954,2.5946,2.5944,2.594,2.5932,2.5933,2.5925,2.5916,2.5921,2.5908,2.5904,2.5893,2.589,2.5878,2.5885,2.5879,2.5877,2.5875,2.5871,2.5916,2.5877,2.5877,2.5877,2.5878,2.5878,0,2.5927,2.5926,2.5919,2.5913,2.5906,2.5914,2.591,2.5903,2.5892,2.5888,2.588,2.5867,2.5856,2.5855,2.5845,2.5835,2.5838,2.5832,2.5832,2.583,2.5867,2.5871,2.583,2.583,2.583,2.583,2.583,2.583,2.5907,2.5893,2.5895,2.5878,2.5877,2.5865,2.5861,2.5856,2.5853,2.5838,2.5829,2.5828,2.5824,2.5813,2.5802,2.5802,2.5796,2.5789,2.5789,2.5824,2.5828,2.5833,2.5836,2.5788,2.5788,2.5753,2.5753,2.5753]}]]